ELECTRON KICK STAGE R/B, 45111

Orbit data source: Space-Track

ELECTRON KICK STAGE R/B, 45111 is space debris in LEO originally from a launch on Fri, 31 Jan 2020 UTC launched from the Rocket Lab Launch Complex (RLLC). Debris objects in space refer to the collection of defunct objects orbiting the Earth. Examples of debris include non-operational satellites, rocket bodies, and fragments generated from explosions, collisions, or faulty payload assembly.

Loading next visibility...
Identifier
45111, 2020-007B
Orbit
LEO
Country
Flag of USUS
Related business
Manufacturer
Rocket Lab
Mission
Spacecraft
Bus & Motor
KICK STAGE, CURIE
Mass
40 kg wet, 40 kg dry
Launch date (UTC)
2020-01-31 (6 years ago)
Launch vehicle
Unknown
Launch site
Rocket Lab Launch Complex (RLLC)
Object type
Payload
Rocket body
Debris
Shape & HBR
Trunc Cone, 0.7 m
Radar Cross Section
0.760 m², Medium (>0.1 m² and < 1m²)

Expand to show TLE details & history
Last TLE update: 16 hours ago

TLE from 16 hours ago
0 ELECTRON KICK STAGE R/B
1 45111U 20007B   25260.53286722  .00037213  00000-0  81422-3 0  9997
2 45111  69.9808 301.6240 0007283 357.2765   2.8376 15.43938918 74946
Epoch: 2025-09-17T12:47Z
TLE epoch observation values (Epoch: 2025-09-17T12:47:19.727Z)
Latitude
-0.00008°
Longitude
113.08432°
Altitude
432.013 km
Speed
7.656 km/s
True Right ascension
20h 06m 29s
True Declination
0° 00' 00"
Sunlit
Object was in full shadow at epoch
Visualization orbit readout
Latitude
Unknown
Longitude
Unknown
Altitude
Unknown
Speed
Unknown
Apparent Right ascension
Unknown
Apparent Declination
Unknown
Sunlit
N/A
Visualization observer readout
Local Sidereal Time
21:34:45
Azimuth
Unknown
Elevation
Unknown
Doppler factor
Unknown
Orbital elements
Apogee altitude
437.367 km
Perigee altitude
427.446 km
Semi-major axis
6,810.543 km
Eccentricity
0.00073
Inclination
69.9808°
RAAN
301.624°
Arg. of periapsis
357.2765°
True anomaly
2.84174°
Mean anomaly
2.8376°
Eccentric anomaly
2.83967°
Mean motion
3.86163 °/min
Orbital period
93.22 mins
BSTAR
0.00081422
Loading maneuver chart data...
Computing Atmospheric mass density...
Loading historical data...
Loading historical data...
Loading historical data...
Loading historical data...
Loading historical data...
Loading historical data...
Loading historical data...
Other satellites on launch #7 in the year 2020 (2020-01-31 UTC)

Documentation

Showing up to 5 results
|